Location: Sternwarte_Laufen
(47.9344°N, 12.9346°E)
Time: 16:45:43
(UTC+02:00)

ISS - Pass Details

Date: 15 May 2026
Orbit: 414 x 424 km, 51.6° (Epoch: 21 May)

Event Time Altitude Azimuth Distance (km) Brightness Sun altitude
Rises 00:09:39 0° 292° (WNW) 2,355 0.6 -22.1°
Reaches altitude 10° 00:11:45 10° 294° (WNW) 1,492 -0.5 -22.2°
Enters shadow 00:14:19 48° 311° (NW) 551 -2.9 -22.3°
